User: anonymous   Login
Location: Newark
(40.7360°N, 74.1730°W)
Time: 09:16:54
(UTC-04:00)
Language:

ISS - Orbit

View from above orbital plane
View from above orbital plane
View from above satellite
View from above satellite

Ground track
Ground track

The orbit data is extracted from the following two-line orbital elements,

1 25544U 98067A   15243.01449383  .00003616  00000-0  58744-4 0  9995
2 25544 051.6445 070.4086 0001411 094.6548 008.3082 15.55575721959686
Epoch (UTC): 31 August 2015 00:20:52
Eccentricity: 0.0001411
inclination: 51.6445°
perigee height: 399 km
apogee height: 401 km
right ascension of ascending node: 70.4086°
argument of perigee: 94.6548°
revolutions per day: 15.55575721
mean anomaly at epoch: 8.3082°
orbit number at epoch: 95968

The dashed part of the orbit path shows where the satellite is in the earth's shadow,  

DLR